STARLINK-2426 (47836 NORAD) Tracking and Keplerian Element Data

This shows tracking and keplerian element data for the satellite.

Feedback or suggestion? Click here.




ElementValue
Catalog47836
NameSTARLINK-2426
Epoch Orbit1723
Epoch Day173.90067412
Epoch Year2021
RAAN56.5309
Inclination53.0552
Eccentricity0.0002164
Argument of Perigee99.6389
Mean Anonmoly260.4844
Mean Motion15.0639156
Decay Rate-1.095E-05
L11 47836U 21018BB 21173.90067412 -.00001095 00000-0 -54646-4 0 9999
L22 47836 53.0552 56.5309 0002164 99.6389 260.4844 15.06391560 17232

Live tracking and technical data element details for STARLINK-2426 (NORAD 47836). STARLINK-2426 can be tracked NOW for your location showing map with azimuth and elevation plus other details from your city location.

Track the satellite on the map from your city or location and see movement details for azimuth, elevation, latitude, longitude, range, height, and movement on the map or in text.







IsCatalogInMostPopularTable: catalog: 47836, numindb: 39
Update: records affected: 1



GetName: 47836 STARLINK-2426

Hit Count: updated at: Thu, 24 Jun 2021 02:24:57 GMT